Regional Weather Roundup
Issued by NWS

Home | Current Version | Previous Version | Text Only | Print | Product List | Glossary Off
Versions: 1 2 3 4 5 6 7 8 9 10 11 12 13 14 15 16 17 18 19 20 21 22 23 24 25 26 27 28 29 30 31 32 33 34 35 36 37 38 39 40 41 42 43 44 45 46 47 48 49 50

000
ASUS45 KTFX 281919
RWRMT
MONTANA REGIONAL WEATHER ROUNDUP
NATIONAL WEATHER SERVICE GREAT FALLS MT
100 PM MDT FRI AUG 28 2015

NOTE: "FAIR" INDICATES FEW OR NO CLOUDS BELOW 12000 FEET WITH NO
SIGNIFICANT WEATHER AND/OR OBSTRUCTIONS TO VISIBILITY.

MTZ001>007-043-282000-
WEST OF THE DIVIDE

CITY           SKY/WX    TMP DP  RH WIND       PRES   REMARKS
KALISPELL      CLOUDY    81  41  24 S5        29.96F SMOKE
MISSOULA       CLOUDY    73  42  32 S3        30.01F HAZE
BUTTE          CLOUDY    76  39  26 CALM      30.19F HAZE
MULLAN PASS    CLOUDY    67  38  34 CALM      30.16S HAZE
DEER LODGE       N/A     81  37  21 S8        30.13F
EUREKA           N/A     81  39  22 SE9       29.94R
HAMILTON         N/A     81  50  34 N1        30.01F
LIBBY            N/A     73  41  31 CALM      29.95F
PLAINS           N/A     77  43  29 CALM      29.96F
RONAN            N/A     82  45  27 SW2       30.01F
THOMPSON FALLS   N/A     75  44  33 W3        30.00F
$$

MTZ008-052>055-282000-
SOUTHWEST MONTANA

CITY           SKY/WX    TMP DP  RH WIND       PRES   REMARKS
BOZEMAN        SUNNY     77  48  35 CALM      30.14F
DILLON         CLOUDY    79  44  28 N7        30.17F HAZE
W YELLOWSTONE  SUNNY     75  34  22 SW9       30.30F
THREE FORKS      N/A     78  72  82 CALM      30.11F
TWIN BRIDGES     N/A     73  46  38 SW3       30.14F
$$

MTZ009-010-012-014-046-048-049-054-282000-
EAST SLOPES AND CENTRAL MONTANA

CITY           SKY/WX    TMP DP  RH WIND       PRES   REMARKS
CUT BANK       CLOUDY    79  34  19 SW10      30.00F HAZE
GREAT FALLS    PTSUNNY   87  29  12 SW16      30.02F
MALMSTROM AFB  PTSUNNY   85  33  15 SW9G18    30.02F
HELENA         PTSUNNY   77  49  37 NW3       30.07F SMOKE
CONRAD           N/A     85  35  16 S10       30.03F
$$

MTZ011-013-016-021-045-047-050-051-282000-
NORTH CENTRAL MONTANA

CITY           SKY/WX    TMP DP  RH WIND       PRES   REMARKS
HAVRE          CLOUDY    82  42  24 SW16      29.95F HAZE
LEWISTOWN      MOSUNNY   84  33  16 W8        30.09F
N BAR RANCH      N/A     84  27  12 NW12G20   30.12F
CHINOOK          N/A     81  45  28 W7        29.95F
FORT BENTON      N/A     88  34  14 SW8       29.97F
$$

MTZ017>020-022>027-061-062-282000-
NORTHEAST MONTANA

CITY           SKY/WX    TMP DP  RH WIND       PRES   REMARKS
GLASGOW        MOSUNNY   86  42  21 W15       29.92F HAZE
JORDAN           N/A    N/A N/A N/A MISG        N/A
SIDNEY         MOSUNNY   86  61  42 S10       29.89F
WOLF POINT     CLOUDY    87  46  24 W14G23    29.91F HAZE
MALTA            N/A     80  46  30 SW7       29.92S
PLENTYWOOD       N/A     84  43  23 W9        29.89F
POPLAR           N/A     82  52  34 SW8       29.91F
SCOBEY           N/A     85  45  24 W17       29.91F
$$

MTZ028>42-056>058-282000-
SOUTHCENTRAL AND SOUTHEAST MONTANA

CITY           SKY/WX    TMP DP  RH WIND       PRES   REMARKS
BAKER          MOSUNNY   83  49  30 W8        30.00F
BILLINGS       PTSUNNY   83  44  25 SW14      30.09F
LIVINGSTON     SUNNY     86  41  20 SW14      30.13F
MILES CITY     CLOUDY    86  42  21 NW13G21   29.98F HAZE
EKALAKA          N/A     80  44  27 W10       30.02F
FORSYTH          N/A     82  46  28 SW12      30.01F
LAUREL           N/A     83  46  27 S6        30.07F
ROUNDUP          N/A     86  31  14 S7        29.97F
$$

REGIONAL REPORTS...DAKOTAS

CITY           SKY/WX    TMP DP  RH WIND       PRES   REMARKS
WILLISTON      SUNNY     83  61  47 SW9       29.89F
MINOT          SUNNY     84  59  42 NW7       29.86F
DICKINSON      SUNNY     88  53  30 NW5       29.92F
BEACH            N/A     82  48  30 W6        29.97F HAZE
CROSBY           N/A     81  59  47 E3        29.89S
BISMARCK       SUNNY     85  66  53 S9        29.89F
GRAND FORKS    MOSUNNY   83  67  58 S24G31    29.81F
FARGO          SUNNY     80  66  62 S13       29.91F
BUFFALO SD       N/A     85  51  31 W8        29.94F
RAPID CITY     SUNNY     84  55  36 N10       30.04F
$$

REGIONAL REPORTS...WYOMING/IDAHO/WASHINGTON

CITY           SKY/WX    TMP DP  RH WIND       PRES   REMARKS
GILLETTE       SUNNY     82  42  24 VRB6      30.14F
SHERIDAN       SUNNY     88  39  17 N8        30.10F HAZE
BUFFALO WY     SUNNY     83  39  21 E6        30.19F
CODY           SUNNY     82  43  24 E8        30.17F
YELLOWSTONE LA   N/A     63  43  48 SE6       30.42F
IDAHO FALLS    SUNNY     81  46  29 VRB5      30.20F
SALMON         CLOUDY    73  43  33 W3        30.08F
BOISE          MOSUNNY   88  40  18 N9        30.02F
SPOKANE        CLOUDY    75  42  30 SW10      30.00R
$$

REGIONAL REPORTS...ALBERTA

CITY           SKY/WX    TMP DP  RH WIND       PRES   REMARKS
EDMONTON       SUNNY     79  46  31 SW8       29.74F
CALGARY        CLOUDY    73  48  40 SW6       29.88F SMOKE
LETHBRIDGE     CLOUDY    81  39  22 SW13G23   29.92F
MEDICINE HAT   CLOUDY    84  41  21 W12       29.88F SMOKE
WATERTON GATE    N/A     79  39  24 S13G20      N/A
CARDSTON         N/A     77  43  29 S9          N/A
MILK RIVER       N/A     81  37  21 W10         N/A
ONEFOUR          N/A     84  30  14 W12G18      N/A
$$

REGIONAL REPORTS...SASKATCHEWAN

CITY           SKY/WX    TMP DP  RH WIND       PRES   REMARKS
SWIFT CURRENT  SUNNY     77  54  44 W16       29.89S HAZE
REGINA         PTSUNNY   77  63  61 E6        29.87F
SASKATOON      PTSUNNY   77  57  50 SE8       29.87F
CYPRESS HILLS    N/A     77  37  24 W7          N/A
VAL MARIE        N/A     77  41  27 W13         N/A
ROCKGLEN         N/A     75  48  38 SW17        N/A
ASSINIBOIA       N/A     82  52  34 S10         N/A
$$


USA.gov is the U.S. government's official web portal to all federal, state and local government web resources and services.